This demonstration page uses our WeatherBlox Daily Observations layout. Learn more.

Left ArrowRight Arrow

Hourly Observations for September 24, 2018

Temp ( °F °C ) Dew Point ( °F °C ) Humidity (%) Winds ( mph kmh ) Pressure ( in mb ) Visibility ( mi km ) Precip ( " mm )
12:26 am 00:26 Mostly Cloudy 63 17.2 58 14.4 84 84 Calm 30.12 1020 10 16 0.00 0.00
12:53 am 00:53 Cloudy 63 17.2 58 14.4 84 84 ENE 3 6 30.12 1020 10 16 0.00 0.00
1:05 am 01:05 Cloudy 64 17.8 58 14.4 81 81 E 5 7 30.09 1019 10 16 0.00 0.00
1:53 am 01:53 Cloudy 64 17.8 58 14.4 81 81 E 5 7 30.12 1020 10 16 0.00 0.00
2:53 am 02:53 Cloudy 64 17.8 59 15 84 84 ENE 6 9 30.11 1020 10 16 0.00 0.00
3:53 am 03:53 Cloudy 64 17.8 60 15.6 87 87 ENE 5 7 30.10 1019 10 16 0.00 0.00
4:53 am 04:53 Cloudy 65 18.3 61 16.1 87 87 E 5 7 30.10 1019 10 16 0.00 0.00
5:14 am 05:14 Cloudy with Heavy Rain 63 17.2 61 16.1 93 93 ENE 3 6 30.09 1019 2 3 0.09 2.29
5:26 am 05:26 Cloudy with Light Rain 63 17.2 61 16.1 93 93 Calm 30.09 1019 4 6 0.10 2.54
5:32 am 05:32 Cloudy with Heavy Rain 63 17.2 61 16.1 93 93 Calm 30.09 1019 2 3 0.15 3.81
5:39 am 05:39 Cloudy with Heavy Rain 63 17.2 61 16.1 93 93 Calm 30.09 1019 2 2 0.20 5.08
5:49 am 05:49 Cloudy with Heavy Rain 63 17.2 61 16.1 93 93 N 3 6 30.11 1020 2 3 0.27 6.86
6:03 am 06:03 Cloudy with Light Rain 63 17.2 61 16.1 93 93 ENE 6 9 30.09 1019 4 6 0.02 0.51
6:09 am 06:09 Cloudy with Nearby Thunderstorms 63 17.2 61 16.1 93 93 ENE 6 9 30.09 1019 4 6 0.05 1.27
6:20 am 06:20 Cloudy with Heavy Rain 63 17.2 62 16.7 97 97 Calm 30.09 1019 3 5 0.10 2.54
6:34 am 06:34 Cloudy with Light Rain 63 17.2 62 16.7 97 97 Calm 30.09 1019 5 8 0.12 3.05
6:53 am 06:53 Cloudy with Light Rain 63 17.2 62 16.7 97 97 Calm 30.12 1020 6 10 0.13 3.30
7:07 am 07:07 Cloudy with Heavy Rain 63 17.2 62 16.7 97 97 E 5 7 30.09 1019 3 5 0.04 1.02
7:18 am 07:18 Cloudy with Rain 63 17.2 62 16.7 97 97 E 6 9 30.09 1019 3 5 0.08 2.03
7:27 am 07:27 Cloudy with Rain 63 17.2 62 16.7 97 97 E 6 9 30.09 1019 3 4 0.11 2.79
7:34 am 07:34 Cloudy with Rain 63 17.2 62 16.7 97 97 E 6 9 30.09 1019 4 6 0.12 3.05
7:53 am 07:53 Cloudy with Rain 63 17.2 62 16.7 97 97 Calm 30.12 1020 5 8 0.15 3.81
8:22 am 08:22 Cloudy with Light Rain 64 17.8 62 16.7 93 93 E 5 7 30.09 1019 5 8 0.01 0.25
8:53 am 08:53 Cloudy with Light Rain 64 17.8 63 17.2 96 96 E 6 9 30.12 1020 6 10 0.02 0.51
9:17 am 09:17 Cloudy 65 18.3 63 17.2 93 93 ESE 6 9 30.09 1019 10 16 0.00 0.03
9:53 am 09:53 Cloudy with Light Rain 65 18.3 64 17.8 97 97 E 3 6 30.13 1020 10 16 0.00 0.03
10:51 am 10:51 Cloudy with Heavy Rain 66 19 64 18 94 94 E 5 7 30.09 1019 2 3 0.08 2.03
10:52 am 10:52 Cloudy with Heavy Rain 66 18.9 65 18.3 96 96 E 3 6 30.12 1020 2 3 0.09 2.29
10:56 am 10:56 Cloudy with Heavy Rain 66 18.9 65 18.3 96 96 ESE 3 6 30.09 1019 2 3 0.01 0.25
11:07 am 11:07 Cloudy with Rain 66 18.9 65 18.3 96 96 Calm 30.09 1019 4 6 0.02 0.51
11:53 am 11:53 Cloudy with Rain 67 19.4 66 18.9 97 97 VRB 3 6 30.11 1020 4 6 0.09 2.29
12:06 pm 12:06 Cloudy with Rain 67 19.4 66 18.9 97 97 SE 3 6 30.09 1019 3 5 0.03 0.76
12:53 pm 12:53 Cloudy with Rain 68 20 67 19.4 96 96 ESE 3 6 30.11 1020 4 6 0.11 2.79
1:00 pm 13:00 Cloudy with Rain 68 20 67 19.4 96 96 ESE 3 6 30.09 1019 4 6 0.01 0.25
1:53 pm 13:53 Cloudy with Rain 69 20.6 68 20 96 96 VRB 5 7 30.08 1019 3 5 0.09 2.29
2:53 pm 14:53 Cloudy with Rain 70 21.1 68 20 93 93 VRB 6 9 30.06 1018 3 5 0.09 2.29
2:55 pm 14:55 Cloudy with Heavy Rain 70 21.1 68 20 93 93 VRB 7 11 30.06 1018 3 4 0.02 0.51
3:01 pm 15:01 Cloudy with Heavy Rain 70 21.1 68 20 93 93 VRB 7 11 30.06 1018 2 2 0.05 1.27
3:09 pm 15:09 Cloudy with Heavy Rain 69 20.6 68 20 96 96 SE 6 9 30.06 1018 1 2 0.12 3.05
3:19 pm 15:19 Cloudy with Heavy Rain 69 20.6 68 20 96 96 SE 7 11 30.06 1018 1 2 0.19 4.83
3:27 pm 15:27 Cloudy with Heavy Rain 69 20.6 68 20 96 96 VRB 3 6 30.06 1018 1 2 0.26 6.60
3:53 pm 15:53 Cloudy with Heavy Rain 69 20.6 68 20 96 96 VRB 6 9 30.04 1017 1 2 0.41 10.41
4:14 pm 16:14 Cloudy with Light Rain 69 20.6 68 20 96 96 VRB 3 6 30.03 1017 2 2 0.13 3.30
4:16 pm 16:16 Cloudy with Light Rain 69 20.6 68 20 96 96 Calm 30.03 1017 2 3 0.13 3.30
4:24 pm 16:24 Cloudy with Rain 70 21.1 68 20 93 93 VRB 6 9 30.03 1017 3 5 0.14 3.56
4:33 pm 16:33 Cloudy with Light Rain 70 21.1 68 20 93 93 VRB 5 7 30.03 1017 4 6 0.14 3.56
4:40 pm 16:40 Cloudy with Light Rain 70 21.1 68 20 93 93 VRB 3 6 30.03 1017 5 8 0.15 3.81
4:53 pm 16:53 Cloudy with Light Rain 70 21.1 68 20 93 93 VRB 6 9 30.02 1017 6 10 0.15 3.81
5:04 pm 17:04 Cloudy with Light Rain 70 21.1 68 20 93 93 VRB 7 11 30.03 1017 5 8 0.00 0.03
5:11 pm 17:11 Cloudy with Light Rain 70 21.1 68 20 93 93 SSE 8 13 30.03 1017 10 16 0.00 0.03
5:34 pm 17:34 Cloudy with Light Rain 70 21.1 67 19.4 90 90 VRB 7 11 30.03 1017 8 13 0.00 0.03
5:53 pm 17:53 Cloudy with Light Rain 69 20.6 68 20 96 96 SSE 9 15 30.02 1017 4 6 0.01 0.25
6:00 pm 18:00 Cloudy with Rain 69 20.6 67 19.4 93 93 SSE 8 13 30.03 1017 2 3 0.03 0.76
6:07 pm 18:07 Cloudy with Rain 69 20.6 67 19.4 93 93 VRB 7 11 30.03 1017 1 2 0.05 1.27
6:12 pm 18:12 Cloudy with Light Rain 69 20.6 67 19.4 93 93 VRB 7 11 30.03 1017 2 3 0.06 1.52
6:23 pm 18:23 Cloudy with Light Rain 69 20.6 67 19.4 93 93 VRB 6 9 30.03 1017 4 6 0.06 1.52
6:53 pm 18:53 Cloudy with Light Rain 69 20.6 67 19.4 93 93 VRB 7 11 30.01 1016 7 11 0.07 1.78
7:34 pm 19:34 Cloudy with Heavy Rain 68 20 67 19.4 96 96 SSE 7 11 30.03 1017 2 3 0.05 1.27
7:43 pm 19:43 Cloudy with Light Rain 68 20 67 19.4 96 96 VRB 7 11 30.03 1017 3 4 0.06 1.52
7:50 pm 19:50 Cloudy with Light Rain 68 20 66 19 94 94 S 7 11 30.03 1017 6 10 0.06 1.52
7:53 pm 19:53 Cloudy with Rain 68 20 67 19.4 96 96 VRB 3 6 30.01 1016 4 6 0.07 1.78
8:53 pm 20:53 Cloudy 69 20.6 67 19.4 93 93 VRB 6 9 30.02 1017 10 16 0.01 0.25
9:53 pm 21:53 Cloudy 69 20.6 67 19.4 93 93 VRB 6 9 30.04 1017 10 16 0.00 0.03
10:53 pm 22:53 Cloudy 70 21.1 67 19.4 90 90 VRB 6 9 30.04 1017 10 16 0.00 0.00
11:53 pm 23:53 Cloudy 70 21.1 67 19.4 90 90 VRB 5 7 30.06 1018 10 16 0.00 0.00

Powered by AerisWeather